CW0630 Weather Reports


time (UTC)temp
F
wind
direction
speed
knots
gust
knots
rain 1hr
in
rain 24hr
in
rain mn
in
humidity
%
barometer
mb
20240715201011 97 195 0.9 8.7 0.00 0.00 0.00 45 1012.5
20240715191023 97 182 5.2 12.2 0.00 0.00 0.00 46 1013.5
20240715181010 97 187 1.7 1.7 0.00 0.00 0.00 44 1014.1
20240715171025 96 177 2.6 2.6 0.00 0.00 0.00 46 1014.9
20240715161041 96 237 0.0 1.7 0.00 0.00 0.00 45 1015.6
20240715151013 93 5 0.0 0.0 0.00 0.00 0.00 51 1015.6
20240715141015 91 197 0.0 0.0 0.00 0.00 0.00 54 1015.8
20240715131014 86 238 0.0 0.0 0.00 0.00 0.00 60 1016.1
20240715121030 79 305 3.5 3.5 0.00 0.00 0.00 74 1016.1
20240715111021 75 173 0.0 0.0 0.00 0.00 0.00 85 1015.4
20240715101022 75 211 0.0 1.7 0.00 0.00 0.00 89 1014.8
20240715091021 76 188 0.0 1.7 0.00 0.00 0.00 88 1014.4
20240715081014 78 190 0.0 0.0 0.00 0.00 0.00 85 1013.9
20240715071025 79 202 1.7 1.7 0.00 0.00 0.00 82 1013.9
20240715061016 81 187 3.5 5.2 0.00 0.00 0.00 80 1014.3
20240715051026 82 185 0.0 7.8 0.00 0.00 0.00 81 1014.6
20240715041023 82 170 3.5 3.5 0.00 0.00 0.00 82 1015.0
20240715031017 84 155 2.6 3.5 0.00 0.00 0.00 79 1015.3
20240715021018 86 175 1.7 1.7 0.00 0.00 0.00 74 1015.3
20240715011035 87 178 0.0 2.6 0.00 0.00 0.00 71 1015.3
20240715001028 89 191 0.0 1.7 0.00 0.00 0.00 63 1015.2
20240714231047 91 160 2.6 2.6 0.00 0.00 0.00 55 1015.5
20240714221012 94 180 0.9 0.9 0.00 0.00 0.00 52 1015.0
20240714211010 96 202 4.3 4.3 0.00 0.00 0.00 45 1015.0